Time,TemperatureF,DewpointF,PressureIn,WindDirection,WindDirectionDegrees,WindSpeedMPH,WindSpeedGustMPH,Humidity,HourlyPrecipIn,Conditions,Clouds,dailyrainin,SolarRadiationWatts/m^2,SoftwareType,DateUTC
2014-02-26 00:02:00,50.0,49.0,-100.00,SE,145,4.0,11.0,98,0.00,,,0.00,0.000000,,2014-02-26 08:02:00,
2014-02-26 00:11:00,50.0,49.0,-100.00,SE,145,4.0,11.0,98,0.00,,,0.00,0.000000,,2014-02-26 08:11:00,
2014-02-26 00:42:00,51.0,50.0,-100.00,North,-999,0.0,6.0,97,0.00,,,-99.99,0.000000,,2014-02-26 08:42:00,
2014-02-26 00:52:00,51.0,50.0,-100.00,North,-999,0.0,6.0,97,0.00,,,-99.99,0.000000,,2014-02-26 08:52:00,
2014-02-26 01:02:00,51.0,50.0,-100.00,North,-999,0.0,6.0,97,0.00,,,-99.99,0.000000,,2014-02-26 09:02:00,
2014-02-26 01:11:00,51.0,50.0,-100.00,North,-999,0.0,6.0,97,0.00,,,-99.99,0.000000,,2014-02-26 09:11:00,
2014-02-26 01:43:00,53.0,49.0,-100.00,South,183,1.0,5.0,85,0.00,,,0.00,0.000000,,2014-02-26 09:43:00,
2014-02-26 01:53:00,53.0,49.0,-100.00,South,183,1.0,5.0,85,0.00,,,0.00,0.000000,,2014-02-26 09:53:00,
2014-02-26 02:03:00,53.0,49.0,-100.00,South,183,1.0,5.0,85,0.00,,,0.00,0.000000,,2014-02-26 10:03:00,
2014-02-26 02:12:00,53.0,49.0,-100.00,South,183,1.0,5.0,85,0.00,,,0.00,0.000000,,2014-02-26 10:12:00,
2014-02-26 02:43:00,52.0,48.0,-100.00,SW,236,2.0,5.0,86,0.00,,,0.00,0.000000,,2014-02-26 10:43:00,
2014-02-26 02:53:00,52.0,48.0,-100.00,SW,236,2.0,5.0,86,0.00,,,0.00,0.000000,,2014-02-26 10:53:00,
2014-02-26 03:02:00,52.0,48.0,-100.00,SW,236,2.0,5.0,86,0.00,,,0.00,0.000000,,2014-02-26 11:02:00,
2014-02-26 03:12:00,52.0,48.0,-100.00,SW,236,2.0,5.0,86,0.00,,,0.00,0.000000,,2014-02-26 11:12:00,
2014-02-26 03:52:00,51.0,49.0,-100.00,North,-999,0.0,6.0,92,0.00,,,-99.99,0.000000,,2014-02-26 11:52:00,
2014-02-26 04:02:00,51.0,49.0,-100.00,North,-999,0.0,6.0,92,0.00,,,-99.99,0.000000,,2014-02-26 12:02:00,
2014-02-26 04:12:00,51.0,49.0,-100.00,North,-999,0.0,6.0,92,0.00,,,-99.99,0.000000,,2014-02-26 12:12:00,
2014-02-26 04:42:00,51.0,48.0,-100.00,North,-999,0.0,4.0,89,0.00,,,0.00,0.000000,,2014-02-26 12:42:00,
2014-02-26 04:52:00,51.0,48.0,-100.00,North,-999,0.0,4.0,89,0.00,,,0.00,0.000000,,2014-02-26 12:52:00,
2014-02-26 05:02:00,51.0,48.0,-100.00,North,-999,0.0,4.0,89,0.00,,,0.00,0.000000,,2014-02-26 13:02:00,
2014-02-26 05:11:00,51.0,48.0,-100.00,North,-999,0.0,4.0,89,0.00,,,0.00,0.000000,,2014-02-26 13:11:00,
2014-02-26 05:42:00,50.0,47.0,-100.00,North,-999,0.0,0.0,90,0.00,,,0.00,0.000000,,2014-02-26 13:42:00,
2014-02-26 05:52:00,50.0,47.0,-100.00,North,-999,0.0,0.0,90,0.00,,,0.00,0.000000,,2014-02-26 13:52:00,
2014-02-26 06:02:00,50.0,47.0,-100.00,North,-999,0.0,0.0,90,0.00,,,0.00,0.000000,,2014-02-26 14:02:00,
2014-02-26 06:11:00,50.0,47.0,-100.00,North,-999,0.0,0.0,90,0.00,,,0.00,0.000000,,2014-02-26 14:11:00,
2014-02-26 06:42:00,50.0,47.0,-100.00,South,185,3.0,5.0,88,0.00,,,0.00,0.000000,,2014-02-26 14:42:00,
2014-02-26 06:52:00,50.0,47.0,-100.00,South,185,3.0,5.0,88,0.00,,,0.00,0.000000,,2014-02-26 14:52:00,
2014-02-26 07:01:00,50.0,47.0,-100.00,South,185,3.0,5.0,88,0.00,,,0.00,0.000000,,2014-02-26 15:01:00,
2014-02-26 07:11:00,50.0,47.0,-100.00,South,185,3.0,5.0,88,0.00,,,0.00,0.000000,,2014-02-26 15:11:00,
2014-02-26 07:43:00,53.0,48.0,-100.00,East,85,4.0,5.0,84,0.00,,,0.00,8.000000,,2014-02-26 15:43:00,
2014-02-26 07:53:00,53.0,48.0,-100.00,East,85,4.0,5.0,84,0.00,,,0.00,8.000000,,2014-02-26 15:53:00,
2014-02-26 08:03:00,53.0,48.0,-100.00,East,85,4.0,5.0,84,0.00,,,0.00,8.000000,,2014-02-26 16:03:00,
2014-02-26 08:13:00,53.0,48.0,-100.00,East,85,4.0,5.0,84,0.00,,,0.00,8.000000,,2014-02-26 16:13:00,
2014-02-26 08:42:00,56.0,49.0,-100.00,East,84,7.0,9.0,76,0.00,,,0.00,110.000000,,2014-02-26 16:42:00,
2014-02-26 08:53:00,56.0,49.0,-100.00,East,84,7.0,9.0,76,0.00,,,0.00,110.000000,,2014-02-26 16:53:00,
2014-02-26 09:02:00,56.0,49.0,-100.00,East,84,7.0,9.0,76,0.00,,,0.00,110.000000,,2014-02-26 17:02:00,
2014-02-26 09:12:00,56.0,49.0,-100.00,East,84,7.0,9.0,76,0.00,,,0.00,110.000000,,2014-02-26 17:12:00,
2014-02-26 09:43:00,57.0,47.0,-100.00,ESE,113,9.0,12.0,68,0.00,,,0.00,219.000000,,2014-02-26 17:43:00,
2014-02-26 09:52:00,57.0,47.0,-100.00,ESE,113,9.0,12.0,68,0.00,,,0.00,219.000000,,2014-02-26 17:52:00,
2014-02-26 10:02:00,57.0,47.0,-100.00,ESE,113,9.0,12.0,68,0.00,,,0.00,219.000000,,2014-02-26 18:02:00,
2014-02-26 10:12:00,57.0,47.0,-100.00,ESE,113,9.0,12.0,68,0.00,,,0.00,219.000000,,2014-02-26 18:12:00,
2014-02-26 10:42:00,58.0,45.0,-100.00,ESE,115,9.0,16.0,62,0.00,,,0.00,383.000000,,2014-02-26 18:42:00,
2014-02-26 10:53:00,58.0,45.0,-100.00,ESE,115,9.0,16.0,62,0.00,,,0.00,383.000000,,2014-02-26 18:53:00,
2014-02-26 11:01:00,58.0,45.0,-100.00,ESE,115,9.0,16.0,62,0.00,,,0.00,383.000000,,2014-02-26 19:01:00,
2014-02-26 11:11:00,58.0,45.0,-100.00,ESE,115,9.0,16.0,62,0.00,,,0.00,383.000000,,2014-02-26 19:11:00,
2014-02-26 11:42:00,61.0,44.0,-100.00,ESE,108,2.0,15.0,53,0.00,,,0.00,512.000000,,2014-02-26 19:42:00,
2014-02-26 11:52:00,61.0,44.0,-100.00,ESE,108,2.0,15.0,53,0.00,,,0.00,512.000000,,2014-02-26 19:52:00,
2014-02-26 12:02:00,61.0,44.0,-100.00,ESE,108,2.0,15.0,53,0.00,,,0.00,512.000000,,2014-02-26 20:02:00,
2014-02-26 12:11:00,61.0,44.0,-100.00,ESE,108,2.0,15.0,53,0.00,,,0.00,512.000000,,2014-02-26 20:11:00,
2014-02-26 12:42:00,59.0,44.0,-100.00,NW,305,9.0,11.0,57,0.00,,,0.00,374.000000,,2014-02-26 20:42:00,
2014-02-26 12:52:00,59.0,44.0,-100.00,NW,305,9.0,11.0,57,0.00,,,0.00,374.000000,,2014-02-26 20:52:00,
2014-02-26 13:02:00,59.0,44.0,-100.00,NW,305,9.0,11.0,57,0.00,,,0.00,374.000000,,2014-02-26 21:02:00,
2014-02-26 13:11:00,59.0,44.0,-100.00,NW,305,9.0,11.0,57,0.00,,,0.00,374.000000,,2014-02-26 21:11:00,
2014-02-26 13:43:00,59.0,47.0,-100.00,NW,317,8.0,18.0,64,0.00,,,0.00,352.000000,,2014-02-26 21:43:00,
2014-02-26 13:53:00,59.0,47.0,-100.00,NW,317,8.0,18.0,64,0.00,,,0.00,352.000000,,2014-02-26 21:53:00,
2014-02-26 14:03:00,59.0,47.0,-100.00,NW,317,8.0,18.0,64,0.00,,,0.00,352.000000,,2014-02-26 22:03:00,
2014-02-26 14:12:00,59.0,47.0,-100.00,NW,317,8.0,18.0,64,0.00,,,0.00,352.000000,,2014-02-26 22:12:00,
2014-02-26 14:43:00,61.0,46.0,-100.00,NE,55,5.0,12.0,57,0.00,,,0.00,394.000000,,2014-02-26 22:43:00,
2014-02-26 14:53:00,61.0,46.0,-100.00,NE,55,5.0,12.0,57,0.00,,,0.00,394.000000,,2014-02-26 22:53:00,
2014-02-26 15:02:00,61.0,46.0,-100.00,NE,55,5.0,12.0,57,0.00,,,0.00,394.000000,,2014-02-26 23:02:00,
2014-02-26 15:11:00,61.0,46.0,-100.00,NE,55,5.0,12.0,57,0.00,,,0.00,394.000000,,2014-02-26 23:11:00,
2014-02-26 15:42:00,62.0,47.0,-100.00,NW,312,4.0,10.0,57,0.00,,,0.00,379.000000,,2014-02-26 23:42:00,
2014-02-26 15:52:00,62.0,47.0,-100.00,NW,312,4.0,10.0,57,0.00,,,0.00,379.000000,,2014-02-26 23:52:00,
2014-02-26 16:01:00,62.0,47.0,-100.00,NW,312,4.0,10.0,57,0.00,,,0.00,379.000000,,2014-02-27 00:01:00,
2014-02-26 16:11:00,62.0,47.0,-100.00,NW,312,4.0,10.0,57,0.00,,,0.00,379.000000,,2014-02-27 00:11:00,
2014-02-26 16:42:00,61.0,47.0,-100.00,NW,306,7.0,11.0,59,0.00,,,0.00,168.000000,,2014-02-27 00:42:00,
2014-02-26 16:52:00,61.0,47.0,-100.00,NW,306,7.0,11.0,59,0.00,,,0.00,168.000000,,2014-02-27 00:52:00,
2014-02-26 17:02:00,61.0,47.0,-100.00,NW,306,7.0,11.0,59,0.00,,,0.00,168.000000,,2014-02-27 01:02:00,
2014-02-26 17:11:00,61.0,47.0,-100.00,NW,306,7.0,11.0,59,0.00,,,0.00,168.000000,,2014-02-27 01:11:00,
2014-02-26 17:42:00,59.0,46.0,-100.00,NNE,30,4.0,10.0,61,0.00,,,0.00,63.000000,,2014-02-27 01:42:00,
2014-02-26 17:52:00,59.0,46.0,-100.00,NNE,30,4.0,10.0,61,0.00,,,0.00,63.000000,,2014-02-27 01:52:00,
2014-02-26 18:02:00,59.0,46.0,-100.00,NNE,30,4.0,10.0,61,0.00,,,0.00,63.000000,,2014-02-27 02:02:00,
2014-02-26 18:11:00,59.0,46.0,-100.00,NNE,30,4.0,10.0,61,0.00,,,0.00,63.000000,,2014-02-27 02:11:00,
2014-02-26 18:53:00,57.0,46.0,-100.00,NNE,25,5.0,9.0,67,0.00,,,0.00,9.000000,,2014-02-27 02:53:00,
2014-02-26 19:02:00,57.0,46.0,-100.00,NNE,25,5.0,9.0,67,0.00,,,0.00,9.000000,,2014-02-27 03:02:00,
2014-02-26 19:11:00,57.0,46.0,-100.00,NNE,25,5.0,9.0,67,0.00,,,0.00,9.000000,,2014-02-27 03:11:00,
2014-02-26 19:43:00,56.0,47.0,-100.00,NW,319,4.0,7.0,73,0.00,,,0.00,0.000000,,2014-02-27 03:43:00,
2014-02-26 19:53:00,56.0,47.0,-100.00,NW,319,4.0,7.0,73,0.00,,,0.00,0.000000,,2014-02-27 03:53:00,
2014-02-26 20:03:00,56.0,47.0,-100.00,NW,319,4.0,7.0,73,0.00,,,0.00,0.000000,,2014-02-27 04:03:00,
2014-02-26 20:12:00,56.0,47.0,-100.00,NW,319,4.0,7.0,73,0.00,,,0.00,0.000000,,2014-02-27 04:12:00,
2014-02-26 20:43:00,57.0,50.0,-100.00,East,82,3.0,5.0,77,0.00,,,0.00,0.000000,,2014-02-27 04:43:00,
2014-02-26 20:53:00,57.0,50.0,-100.00,East,82,3.0,5.0,77,0.00,,,0.00,0.000000,,2014-02-27 04:53:00,
2014-02-26 21:02:00,57.0,50.0,-100.00,East,82,3.0,5.0,77,0.00,,,0.00,0.000000,,2014-02-27 05:02:00,
2014-02-26 21:11:00,57.0,50.0,-100.00,East,82,3.0,5.0,77,0.00,,,0.00,0.000000,,2014-02-27 05:11:00,
2014-02-26 21:43:00,56.0,50.0,-100.00,ENE,73,8.0,10.0,81,0.00,,,0.00,0.000000,,2014-02-27 05:43:00,
2014-02-26 21:53:00,56.0,50.0,-100.00,ENE,73,8.0,10.0,81,0.00,,,0.00,0.000000,,2014-02-27 05:53:00,
2014-02-26 22:02:00,56.0,50.0,-100.00,ENE,73,8.0,10.0,81,0.00,,,0.00,0.000000,,2014-02-27 06:02:00,
2014-02-26 22:12:00,56.0,50.0,-100.00,ENE,73,8.0,10.0,81,0.00,,,0.00,0.000000,,2014-02-27 06:12:00,
2014-02-26 22:42:00,55.0,48.0,-100.00,North,-999,0.0,10.0,76,0.00,,,0.00,0.000000,,2014-02-27 06:42:00,
2014-02-26 22:52:00,55.0,48.0,-100.00,North,-999,0.0,10.0,76,0.00,,,0.00,0.000000,,2014-02-27 06:52:00,
2014-02-26 23:02:00,55.0,48.0,-100.00,North,-999,0.0,10.0,76,0.00,,,0.00,0.000000,,2014-02-27 07:02:00,
2014-02-26 23:11:00,55.0,48.0,-100.00,North,-999,0.0,10.0,76,0.00,,,0.00,0.000000,,2014-02-27 07:11:00,
2014-02-26 23:42:00,55.0,52.0,-100.00,ENE,71,5.0,9.0,90,0.00,,,0.00,0.000000,,2014-02-27 07:42:00,
2014-02-26 23:52:00,55.0,52.0,-100.00,ENE,71,5.0,9.0,90,0.00,,,0.00,0.000000,,2014-02-27 07:52:00,